SCP
0 0 0 0 0 0 0 0 0 0 0 0 0 0 0 0 0 0 0 0 0 0 0 0 0 0 1 1 1 1 1 0 0 0 0 0 0 0 0 0 0 0 0 0
0 0 0 0 0 0 0 0 0 0 0 0 0 0 0 0 0 0 0 0 0 1 1 1 0 0 1 1 1 1 1 1 1 0 0 0 0 0 0 0 0 0 0 0
0 0 0 0 0 0 0 0 0 0 0 0 0 0 0 0 0 0 0 0 0 0 1 1 1 0 1 1 1 1 1 1 1 1 0 0 0 0 0 0 0 0 0 0
0 0 0 0 0 0 0 0 0 0 0 0 0 0 0 0 0 0 0 0 0 0 0 0 1 1 1 1 1 1 1 1 1 1 1 0 0 0 0 0 0 0 0 0
0 0 0 0 0 0 0 0 0 0 0 0 0 0 0 0 0 0 0 0 0 0 0 0 1 1 1 1 1 1 1 1 1 1 1 1 1 1 1 1 1 0 0 0
0 0 0 0 0 0 0 0 0 0 0 0 0 0 0 0 0 0 0 0 0 0 0 0 1 1 1 1 1 1 1 1 1 1 1 1 1 1 1 1 1 1 1 0
0 0 0 0 0 0 0 0 0 0 0 0 0 0 0 0 0 0 0 0 0 0 0 0 1 1 1 1 1 1 1 1 1 1 1 1 1 1 1 1 1 1 1 1
0 0 0 0 0 0 0 0 0 0 0 0 0 0 0 0 0 0 0 0 0 0 0 0 1 1 1 1 1 1 1 1 1 1 1 1 1 1 1 1 1 1 1 1
0 0 0 0 0 0 0 0 0 0 0 0 0 0 0 0 0 0 0 0 0 0 0 0 0 1 1 1 1 1 1 1 1 1 1 1 1 1 1 1 1 1 1 1
0 0 0 0 0 0 0 0 0 0 0 0 0 0 0 0 0 0 0 0 0 0 0 0 0 1 1 1 1 1 1 1 1 1 1 1 1 1 1 1 1 1 1 1
0 0 0 0 0 0 0 0 0 0 0 0 0 0 0 0 0 0 0 1 1 1 0 0 0 1 1 1 1 1 1 1 1 1 1 1 1 1 1 1 1 1 1 1
0 0 0 0 0 0 0 0 0 0 0 0 0 0 0 0 0 0 1 1 1 1 1 1 1 1 1 1 1 1 1 1 1 1 1 1 1 1 1 1 1 1 1 1
0 0 0 0 0 0 0 0 0 0 0 0 0 0 0 0 0 0 1 1 1 1 1 1 1 1 1 1 1 1 1 1 1 1 1 1 1 1 1 0 0 0 0 0
0 0 0 0 0 0 0 0 0 0 0 0 0 0 0 0 0 1 1 1 1 1 1 1 1 1 1 1 1 1 1 1 1 1 1 1 1 1 1 0 0 0 0 0
0 0 0 0 0 0 0 0 0 0 0 0 0 0 0 0 1 1 1 1 1 1 1 1 1 1 1 1 1 1 1 1 1 1 1 1 1 1 1 0 0 0 0 0
0 0 0 0 0 0 0 0 0 0 0 0 0 0 0 1 1 1 1 1 1 1 1 1 1 1 1 1 1 1 1 1 1 1 1 1 1 1 1 1 0 0 0 0
0 0 0 0 0 0 0 0 0 0 0 0 0 0 0 1 1 1 1 1 1 1 1 1 1 1 1 1 1 1 1 1 1 1 1 1 1 1 1 1 1 1 1 0
0 0 0 0 0 0 0 0 0 0 0 0 0 0 0 1 1 1 1 1 1 1 1 1 1 1 1 1 1 1 1 1 1 1 1 1 1 1 1 1 1 1 1 1
0 0 0 0 0 0 0 0 0 0 0 0 0 0 0 1 1 1 1 1 1 1 1 1 1 1 1 1 1 1 1 1 1 1 1 1 1 1 1 1 1 1 1 1
0 0 0 0 0 0 0 0 0 0 0 0 0 0 1 1 1 1 1 1 1 1 1 1 1 1 1 1 1 1 1 1 1 1 1 1 1 1 1 1 1 1 1 1
0 0 0 0 0 0 0 0 0 0 0 0 0 1 1 1 1 1 1 1 1 1 1 1 1 1 1 2 2 2 1 1 1 1 1 1 1 1 1 1 1 1 1 1
0 0 0 0 0 0 0 0 0 1 1 1 1 1 1 1 1 1 1 1 1 1 1 1 1 2 2 2 2 2 1 1 1 1 1 1 1 1 1 1 1 1 1 0
0 0 0 0 0 0 0 0 0 1 1 1 1 1 1 1 1 1 1 1 1 1 1 1 2 2 2 2 2 2 2 1 1 1 1 1 1 1 1 1 1 1 0 0
0 0 0 0 0 0 0 0 0 0 0 0 0 0 0 1 1 1 1 1 1 1 1 1 1 1 1 1 1 1 1 1 1 1 1 1 1 1 1 1 0 0 0 0
0 0 0 0 0 0 0 0 0 0 0 0 0 0 1 1 1 1 1 1 1 1 1 1 1 1 1 1 1 1 1 1 1 1 1 1 1 0 0 0 0 0 0 0
0 0 0 0 0 0 0 0 0 0 0 0 0 1 1 1 1 1 1 1 1 1 1 1 1 1 1 1 1 1 1 1 1 1 1 1 0 0 0 0 0 0 0 0
Wind_Speed
11 10 7 9 8 7 7 7 6 5 2 2 3 5 7 7 6 7 7 8 8 8 9 8 8 8 8 8 6 5 4 3 2 1 1 1 2 2 2 3 4 3 3 3
10 11 11 10 9 8 8 8 7 4 3 3 2 1 3 6 7 6 6 7 8 7 7 8 8 7 7 7 6 5 4 3 2 1 1 1 2 1 2 3 3 3 2 2
12 8 9 10 9 9 8 7 7 5 5 5 4 4 3 3 6 8 7 8 9 9 8 8 8 8 7 7 6 5 4 4 2 2 1 1 1 1 2 2 2 2 2 2
11 10 10 10 9 9 8 7 8 7 7 6 6 3 4 5 6 8 8 7 7 8 8 8 8 8 8 8 7 6 5 4 3 2 1 1 1 2 2 2 2 2 1 2
11 9 10 11 9 8 9 8 8 10 9 7 7 5 4 7 7 7 7 8 7 7 8 8 9 8 7 8 8 7 5 4 3 2 1 1 1 1 1 2 2 1 1 2
14 11 10 10 9 9 8 9 9 8 7 8 9 6 3 6 8 9 8 8 8 8 9 9 8 9 7 7 7 8 7 5 3 2 2 2 2 2 1 1 1 1 1 1
15 14 11 10 10 9 10 8 4 5 5 7 7 4 3 6 8 8 9 10 9 9 10 9 9 9 8 7 7 7 7 5 4 3 2 2 1 1 1 0 0 0 1 1
11 10 11 10 11 9 9 9 6 5 6 5 3 1 3 6 7 7 8 10 10 9 9 9 9 9 8 8 7 7 7 5 4 3 3 2 2 1 0 0 0 1 1 1
9 9 9 10 10 10 10 9 8 8 10 7 2 4 6 6 6 8 9 10 9 9 9 9 8 9 8 7 7 7 7 5 4 3 3 2 1 0 1 1 1 1 1 1
12 10 8 10 10 11 11 10 7 6 6 7 4 2 3 5 7 7 9 9 9 9 9 8 7 7 8 7 7 6 6 5 5 4 3 3 2 1 1 1 2 2 3 2
12 11 10 10 11 11 11 11 9 6 6 7 5 0 5 6 5 7 9 9 9 9 8 7 7 7 8 7 7 6 5 4 4 4 3 2 2 2 1 1 1 2 2 1
8 9 9 11 9 9 10 11 10 7 6 6 6 1 3 5 6 5 7 8 9 9 8 8 8 7 7 6 6 5 5 4 3 3 3 2 2 2 1 1 1 2 1 1
5 7 8 10 9 9 9 10 10 9 7 7 7 2 3 4 4 5 7 9 8 8 8 8 8 7 6 5 5 5 4 4 4 4 3 3 2 2 2 1 1 1 1 1
5 9 10 11 9 8 8 10 10 10 7 8 7 3 4 4 5 6 7 9 8 8 7 7 7 7 6 5 4 3 3 3 3 4 3 3 2 1 1 1 1 1 1 0
7 10 11 13 14 13 11 11 10 11 10 10 7 4 4 3 5 6 7 7 8 8 7 7 7 6 6 5 4 3 3 3 3 3 3 3 2 1 1 1 1 1 0 1
7 9 11 14 15 15 14 13 12 12 11 9 6 3 1 4 7 6 6 6 6 7 6 6 6 6 6 5 4 4 3 3 3 2 2 2 2 1 1 1 1 1 1 1
7 8 10 12 13 15 15 11 10 9 7 7 5 2 2 4 5 4 6 6 5 6 6 5 5 5 5 5 4 4 4 3 3 2 2 2 1 1 1 1 0 1 1 1
10 8 8 11 13 15 9 7 8 8 6 5 1 1 0 3 4 4 5 5 4 5 5 5 4 4 5 5 5 4 4 3 3 2 2 2 2 1 1 1 1 1 1 1
10 8 8 9 12 11 9 7 6 7 4 3 3 1 1 3 4 3 4 5 5 4 4 4 4 4 4 5 4 4 3 3 3 2 2 1 1 1 1 1 1 1 2 2
12 9 8 10 12 12 6 5 5 5 3 4 4 4 2 1 2 2 4 5 5 4 4 4 4 4 4 3 4 3 3 2 2 2 2 1 1 1 1 1 1 1 2 2
11 10 11 12 13 8 5 5 4 5 2 5 4 4 4 4 3 3 4 5 5 4 4 4 4 4 3 3 3 3 3 2 1 1 1 1 1 1 1 1 1 1 2 2
9 9 9 10 12 6 6 5 3 4 4 5 5 5 5 5 5 5 5 5 4 4 4 4 4 3 3 3 2 2 2 1 1 1 0 0 1 1 1 1 1 1 2 3
7 4 4 3 2 2 4 4 4 4 4 4 4 4 4 4 4 4 4 4 4 4 3 3 3 3 3 3 2 2 2 2 1 0 0 1 1 1 1 2 2 2 2 3
4 2 2 2 2 2 3 4 4 4 4 3 3 2 2 2 3 4 4 4 4 4 3 3 3 3 3 2 2 2 2 1 1 0 0 1 1 2 2 2 2 2 2 2
5 4 2 2 1 1 2 3 4 4 5 5 4 3 3 3 3 4 4 4 4 3 3 3 3 2 2 2 2 2 2 1 0 0 1 1 1 1 2 2 1 1 1 1
6 4 4 2 1 1 2 4 4 4 4 3 3 4 4 3 3 4 4 4 3 3 3 3 3 2 2 2 2 2 2 1 0 0 0 1 1 1 1 1 1 1 1 1
Wind_Direction
242 244 245 252 251 257 258 269 279 270 225 215 205 169 174 182 181 167 162 156 153 149 147 143 140 132 124 118 112 104 103 98 87 75 81 82 81 77 93 97 89 75 53 48
240 243 251 260 264 261 265 269 273 275 293 304 304 168 179 206 181 176 172 153 143 143 141 141 140 134 128 123 123 122 118 115 107 93 83 86 87 78 88 76 87 79 61 48
241 247 254 258 263 269 266 273 286 281 269 254 246 255 226 210 173 175 166 158 155 158 156 155 152 144 138 132 130 124 116 116 122 123 114 97 101 85 75 90 89 68 54 60
244 242 246 254 258 266 271 274 277 277 268 262 251 246 207 218 205 180 167 161 157 154 161 161 151 145 139 134 126 115 121 120 113 107 91 122 118 94 82 93 99 107 96 85
247 244 247 251 254 258 269 284 280 280 276 265 250 244 196 195 195 183 167 157 154 153 155 151 152 146 144 140 137 132 129 122 115 115 89 73 76 96 91 98 113 119 107 98
257 247 244 254 262 260 268 270 270 276 275 269 262 251 198 191 183 178 166 157 152 150 143 139 143 143 144 142 141 139 134 131 128 120 92 70 59 63 69 79 106 117 110 108
244 238 231 236 249 249 248 259 276 276 260 255 260 256 162 169 153 157 157 154 152 148 142 142 142 142 143 140 139 136 135 139 146 142 127 112 89 98 145 106 87 44 94 67
244 233 227 226 235 253 250 252 252 263 266 260 244 199 141 138 131 136 143 145 144 143 140 142 144 143 142 140 135 132 135 138 143 145 143 144 168 209 222 315 13 11 36 66
256 246 226 220 223 240 252 253 262 265 271 277 226 150 137 138 138 140 139 138 142 142 142 145 148 145 144 142 135 133 133 137 144 145 139 146 153 8 32 26 13 47 42 76
258 267 241 216 216 229 249 266 268 266 285 284 270 187 156 166 168 158 149 147 148 148 145 145 144 144 142 140 134 134 133 138 144 142 154 152 134 120 94 49 31 38 32 29
257 263 258 239 218 227 227 239 250 260 270 286 296 331 150 168 167 161 151 149 154 151 148 146 143 140 139 138 135 132 131 136 143 143 145 127 137 143 124 93 72 65 47 26
253 262 262 256 241 235 243 248 250 249 250 265 273 228 128 135 138 143 140 133 139 145 148 144 140 136 136 136 134 134 139 142 141 133 134 130 127 115 95 82 80 81 69 23
298 271 261 256 245 232 239 259 269 269 263 258 264 165 130 110 116 132 141 134 136 142 142 140 136 138 133 128 127 133 143 142 139 130 126 116 112 106 98 84 68 63 57 12
277 267 270 269 274 268 246 254 258 265 266 270 268 200 171 165 155 142 128 136 146 140 134 139 138 137 128 124 122 129 146 138 134 129 130 122 112 103 109 98 79 58 46 351
257 261 269 274 274 271 263 255 247 251 261 269 278 260 202 177 145 134 131 137 144 145 146 145 145 138 136 134 134 139 135 124 120 124 133 131 127 126 123 132 153 160 163 278
261 280 280 275 273 275 269 262 260 260 260 262 265 284 67 103 112 128 135 139 147 147 148 144 146 141 143 148 148 144 142 132 126 133 143 132 138 147 155 173 180 183 203 258
262 266 274 274 275 273 261 262 264 270 278 278 280 260 181 130 128 133 133 141 150 146 139 140 149 154 150 151 150 157 154 150 152 153 151 148 148 160 187 240 232 231 232 238
247 260 265 268 271 265 273 286 280 283 294 300 300 265 348 129 129 129 123 126 135 139 141 141 148 150 156 158 160 157 156 151 152 162 170 178 183 188 194 250 270 268 267 262
239 243 259 268 263 261 265 275 279 276 282 324 339 17 52 99 110 128 109 108 116 123 135 142 150 145 141 148 153 150 149 152 159 168 174 173 178 183 211 264 279 281 275 262
233 224 239 257 264 265 271 289 302 275 252 16 34 31 28 101 201 109 88 96 107 122 132 142 145 137 128 139 140 144 150 152 164 177 193 185 189 204 222 248 278 283 279 279
231 227 234 249 260 266 307 320 309 272 358 25 37 41 38 40 46 88 89 100 114 119 117 120 117 110 107 104 127 147 148 162 171 171 189 182 185 216 222 223 242 262 278 275
243 235 236 249 254 256 349 342 3 43 36 36 40 50 64 74 84 86 88 88 98 101 103 102 98 96 94 98 113 125 130 124 104 120 152 172 218 257 250 230 244 254 270 272
246 255 251 249 253 34 9 26 49 40 33 38 39 38 67 86 91 85 96 96 93 89 84 87 88 94 94 86 76 98 92 86 88 103 166 242 246 254 247 241 240 246 254 269
268 294 280 284 171 107 47 25 31 32 35 40 44 31 53 92 100 94 94 91 89 88 87 87 94 91 95 94 83 79 88 96 109 113 259 266 247 247 251 246 237 251 266 277
304 299 282 246 237 308 26 10 21 31 35 29 24 29 37 62 91 98 99 90 82 82 80 87 90 86 84 92 93 89 82 80 92 199 258 272 273 279 262 260 264 260 280 263
289 294 277 281 315 307 46 24 18 33 37 24 27 35 43 48 76 97 95 88 84 78 69 68 73 70 60 72 92 103 101 98 20 281 298 291 280 284 290 288 327 346 307 337